Weather Roundup
Issued by NWS Chicago, IL

Home | Current Version | Previous Version | Graphics & Text | Print | Product List | Glossary On
Versions: 1 2 3 4 5 6 7 8 9 10 11 12 13 14 15 16 17 18 19 20 21 22 23 24 25 26 27 28 29 30 31 32 33 34 35 36 37 38 39 40 41 42 43 44 45 46 47 48 49 50
419
NZUS59 KLOT 291908
HRRLOT

CHICAGO AREA WEATHER ROUNDUP
NATIONAL WEATHER SERVICE CHICAGO/ROMEOVILLE IL
200 PM CDT MON AUG 29 2016

NOTE: "FAIR" INDICATES FEW OR NO CLOUDS BELOW 12,000 FEET WITH NO
SIGNIFICANT WEATHER AND/OR OBSTRUCTIONS TO VISIBILITY.

* THESE STATIONS ARE NOT UNDER NWS QUALITY CONTROL. THEY ALSO MAY NOT
  REPORT WEATHER SUCH AS PRECIPITATION OR FOG.

ILZ005-006-012>014-019>023-292000-
NORTHEAST ILLINOIS

CITY           SKY/WX    TMP DP  RH WIND       PRES   REMARKS
OHARE          PTSUNNY   86  70  58 NE7       30.21F HX  90
MIDWAY         PTSUNNY   89  68  49 SW7       30.21F HX  93
AURORA         PTSUNNY   87  73  62 SE9       30.22F HX  94
LANSING*       SUNNY     86  72  64 S5        30.23F HX  92
JOLIET*        SUNNY     87  73  61 E5        30.22F HX  95
WAUKEGAN       CLOUDY    79  73  82 NE5       30.24F HX  82
DUPAGE AIRPORT MOSUNNY   86  71  60 S5        30.22F HX  91
WHEELING       MOSUNNY   82  71  69 E8        30.24F THUNDER HX  86
KANKAKEE*      SUNNY     86  72  62 E5        30.22F HX  91
MORRIS*        SUNNY     86  73  65 CALM      30.21F HX  92
LEWIS AIRPORT* SUNNY     86  74  67 S3        30.22F HX  94
$$

WIZ051-052-058>065-066-070>072-292000-
SOUTHEAST WISCONSIN

CITY           SKY/WX    TMP DP  RH WIND       PRES   REMARKS
MILWAUKEE      PTSUNNY   81  63  54 SE7       30.24F HX  82
KENOSHA*       CLOUDY    82  71  69 E9        30.25F HX  86
RACINE*        SUNNY     81  68  64 SE6       30.26F HX  84
BURLINGTON     CLOUDY    80  67  65 E6        30.24F HX  82
WAUKESHA       MOSUNNY   81  66  61 SE8       30.25F HX  83
$$

INZ001>003-010>013-019-020-292000-
NORTHWEST INDIANA

CITY           SKY/WX    TMP DP  RH WIND       PRES   REMARKS
GARY*          MOSUNNY   88  70  55 SE8       30.23F HX  92
MICHIGAN CITY* NOT AVBL
RENSSELAER*    NOT AVBL
VALPARAISO     MOSUNNY   86  71  60 S6        30.24F HX  91
$$

LMZ740>746-292000-
SOUTHERN LAKE MICHIGAN

STATION/POSITION TIME  SKY/WX   TEMP WIND        PRES    VSBY
                                AIR  DIR/SP/G
                 (UTC)          (F)  (DEG/KT/KT) (MB)    (MI)
HARRISON CRIB    1800            76   30/  7/  7   N/A
BURNHAM HARBOR   1900            79   40/  4/  8   N/A
CALUMET HARBOR   1800            80   30/  7/  8 1023.5F
BURNS HARBOR     1800            81   CALM  /  4 1024.0F
MICHIGAN CITY    1800            81  340/  8/  8   N/A
$$

ABBREVIATIONS USED IN REMARKS
   TC - TEMPERATURE IN CELSIUS
  WCI - WIND CHILL INDEX
   HX - HEAT INDEX
  VSB - VISIBILITY
$$




USA.gov is the U.S. government's official web portal to all federal, state and local government web resources and services.